#timestamp,LO_Frequency,Hit,StdDev 
1581030015.7,286046999.0,N
1581030035.5,286046997.2,Y
1581030055.4,286046999.6,P
1581030075.2,286047000.8,P
1581030095.1,286046998.9,N
1581030096.0,286046998.9,N
1581030115.8,286046999.3,N
1581030135.6,286047001.1,N
1581030155.5,286046998.2,N
1581030175.3,286046998.2,N
1581030195.1,286046998.2,N
1581030215.9,286046998.9,N
1581030235.7,286046999.5,N
1581030255.6,286046997.0,Y
1581030275.4,286046998.2,P
1581030295.2,286046998.6,N
1581030315.1,286047000.1,N
1581030316.0,286047000.1,N
1581030335.8,286047002.8,Y
1581030355.7,286047001.8,P
1581030375.5,286047002.1,N
1581030395.3,286047002.5,N
1581030415.2,286047002.8,N
1581030435.0,286047002.2,N
1581030435.9,286047002.2,N
1581030455.8,286047003.7,Y
1581030475.6,286046998.2,P
1581030495.4,286046997.4,N
1581030515.3,286046999.1,N
1581030535.1,286046997.0,N
1581030555.9,286046996.5,N
1581030575.7,286047000.6,N
1581030595.6,286046999.0,N
1581030615.4,286046999.3,N
1581030635.2,286046998.9,N
1581030655.1,286046997.4,N
1581030656.0,286046997.4,N
1581030675.8,286046998.0,N
1581030695.6,286046996.7,N
1581030715.5,286046998.9,N
1581030735.3,286046998.5,N
1581030755.2,286046999.4,N
1581030775.0,286046997.0,N
1581030775.9,286046997.0,N
1581030795.7,286047000.7,N
1581030815.6,286046998.9,N
1581030835.4,286046999.2,N
1581030855.3,286046999.6,N
1581030875.1,286046999.4,N
1581030876.0,286046999.4,N
1581030895.8,286046999.5,N
1581030915.7,286046997.2,N
1581030935.5,286046997.8,N
1581030955.4,286046994.9,Y
1581031005.2,286046998.1,E
1581031015.1,286047002.5,N
1581031035.9,286047003.6,P
1581031055.7,286047002.1,P
1581031075.5,286047002.1,Y
1581031095.4,286047000.1,P
1581031115.2,286047002.5,N
1581031135.1,286047000.2,N
1581031136.0,286047000.2,N
1581031155.8,286046999.9,N
1581031175.6,286047000.4,N
1581031195.5,286046998.2,N
1581031215.3,286046999.0,N
1581031235.2,286046996.6,N
1581031255.9,286047001.0,N
1581031275.7,286047001.2,N
1581031295.6,286046998.3,N
1581031315.4,286047001.2,N
1581031335.3,286047000.9,N
1581031355.1,286047000.9,N
1581031356.0,286047000.9,N
1581031375.8,286046998.9,N
1581031395.7,286046997.0,N
1581031415.5,286046999.2,N
1581031435.3,286046997.2,N
1581031455.2,286046996.5,N
1581031475.0,286046999.5,N
1581031475.9,286046999.5,N
1581031495.8,286046996.9,N
1581031515.6,286046996.7,N
1581031535.4,286046996.7,N
1581031555.3,286046998.6,N
1581031575.1,286046998.7,N
1581031595.8,286046997.1,N
1581031615.7,286046999.5,N
1581031635.5,286046999.5,N
1581031655.4,286046996.6,N
1581031675.2,286046998.1,N
1581031695.0,286046998.4,N
1581031695.9,286046998.4,N
1581031715.8,286046999.1,N
1581031735.6,286046996.9,N
1581031755.4,286046996.8,N
1581031775.3,286046997.0,N
1581031795.1,286046997.7,N
1581031815.9,286046998.8,N
1581031835.7,286046998.1,N
1581031855.5,286046998.5,N
1581031875.4,286046998.1,N
1581031895.2,286047000.0,N
1581031915.0,286046999.7,N
1581031916.0,286046999.7,N
1581031935.8,286046998.2,N
1581031955.6,286047001.0,N
1581031975.5,286047000.1,N
1581031995.3,286047003.2,N
1581032015.1,286047004.2,N
1581032035.9,286047001.8,N
1581032055.7,286047002.7,N
1581032075.5,286047000.1,N
1581032095.4,286046999.9,N
1581032115.2,286047002.7,N
1581032135.1,286047004.3,N
1581032136.0,286047004.3,N
1581032155.8,286047002.3,N
1581032175.6,286046999.7,N
1581032195.5,286047000.9,N
1581032215.3,286046998.4,N
1581032235.2,286047001.2,N
1581032255.9,286047000.6,N
1581032275.7,286047000.5,N
1581032295.6,286047000.8,N
1581032315.4,286047001.2,N
1581032335.2,286046998.2,N
1581032355.1,286047000.5,N
1581032356.0,286047000.5,N
1581032375.8,286047000.3,N
1581032395.7,286046999.9,N
1581032415.5,286047002.4,N
1581032435.3,286047001.0,N
1581032455.2,286047001.4,N
1581032475.0,286047003.4,N
1581032475.9,286047003.4,N
1581032495.8,286047005.3,Y
1581032515.6,286046999.7,P
1581032535.4,286047000.5,N
1581032555.3,286047000.3,N
1581032575.1,286046999.0,N
1581032595.8,286046998.8,N
1581032615.7,286047001.2,N
1581032635.5,286047004.3,Y
1581032655.4,286047002.0,P
1581032675.2,286047000.7,N
1581032695.0,286047000.9,N
1581032695.9,286047000.9,N
1581032715.8,286046998.6,N
1581032735.7,286046998.4,N
1581032755.5,286046999.6,N
1581032775.4,286047001.2,N
1581032795.2,286047000.3,N
1581032815.0,286047000.4,N
1581032815.9,286047000.4,N
1581032835.8,286047000.2,N
1581032855.6,286046998.2,N
1581032875.5,286046998.9,N
1581032895.3,286046998.4,N
1581032915.1,286046996.5,Y
1581032935.9,286046996.7,P
1581032955.7,286046996.5,N
1581032975.5,286046996.8,N
1581032995.4,286046999.6,N
1581033015.2,286046996.6,N
1581033035.1,286047000.8,N
1581033036.0,286047000.8,N
1581033055.8,286047000.3,N
1581033075.6,286046998.7,N
1581033095.5,286046999.3,N
1581033115.3,286047000.8,N
1581033135.1,286046998.4,N
1581033155.9,286046999.2,N
1581033175.7,286047000.9,N
1581033195.6,286047002.4,N
1581033215.4,286047004.3,N
1581033235.2,286047004.3,N
1581033255.1,286047002.6,N
1581033256.0,286047002.6,N
1581033275.8,286046999.8,N
1581033295.7,286046998.4,N
1581033315.5,286046999.2,N
1581033335.3,286046999.3,N
1581033355.2,286046996.9,N
1581033375.0,286046999.0,N
1581033375.9,286046999.0,N
1581033395.7,286046999.0,N
1581033415.6,286046999.6,N
1581033435.4,286046999.1,N
1581033455.3,286046996.6,N
1581033475.1,286046998.7,N
1581033495.8,286046998.1,N
1581033515.7,286047002.4,N
1581033535.5,286047004.2,N
1581033555.4,286047002.0,N
1581033575.2,286047000.6,N
1581033595.0,286047000.7,N
1581033595.9,286047000.7,N
